CW4132 Weather Reports


Display with metric or nautical units.
time (UTC)temp
F
wind
direction
speed
MPH
gust
MPH
rain 1hr
in
rain 24hr
in
rain mn
in
humidity
%
barometer
mb
20260505151545 76 299 2.0 9.0 0.00 0.00 0.00 47 1018.3
20260505130103 64 271 1.0 6.0 0.00 0.00 0.00 68 1018.2
20260505124547 62 295 0.0 8.0 0.00 0.00 0.00 70 1018.2
20260505123031 61 199 0.0 0.0 0.00 0.00 0.00 72 1018.2
20260505121517 60 229 0.0 0.0 0.00 0.00 0.00 74 1018.3
20260505120100 59 264 0.0 0.0 0.00 0.00 0.00 74 1018.2
20260505120000 59 264 0.0 0.0 0.00 0.00 0.00 75 1018.0
20260505114545 58 279 0.0 0.0 0.00 0.00 0.00 75 1018.1
20260505113031 57 217 0.0 0.0 0.00 0.00 0.00 77 1018.0
20260505111515 57 217 0.0 0.0 0.00 0.00 0.00 76 1017.9
20260505101519 56 235 0.0 0.0 0.00 0.00 0.00 75 1017.2
20260505100013 57 235 0.0 0.0 0.00 0.00 0.00 75 1017.1
20260505094559 57 236 0.0 0.0 0.00 0.00 0.00 74 1017.1
20260505093037 57 205 0.0 0.0 0.00 0.00 0.00 73 1017.1
20260505091524 57 217 0.0 0.0 0.00 0.00 0.00 73 1017.0
20260505090007 58 223 0.0 0.0 0.00 0.00 0.00 73 1016.9
20260505084553 58 223 0.0 0.0 0.00 0.00 0.00 72 1016.7
20260505083041 58 213 0.0 0.0 0.00 0.00 0.00 72 1016.9
20260505081513 59 213 0.0 0.0 0.00 0.00 0.00 71 1016.9
20260505080057 59 227 0.0 0.0 0.00 0.00 0.00 70 1016.7
20260505074550 59 225 0.0 0.0 0.00 0.00 0.00 69 1016.6
20260505073023 60 175 0.0 0.0 0.00 0.00 0.00 69 1016.7
20260505071519 60 190 0.0 0.0 0.00 0.00 0.00 68 1016.6
20260505070049 61 233 0.0 0.0 0.00 0.00 0.00 67 1016.6
20260505064538 61 240 0.0 0.0 0.00 0.00 0.00 67 1016.5
20260505063028 61 229 0.0 0.0 0.00 0.00 0.00 66 1016.5
20260505061515 62 269 0.0 0.0 0.00 0.00 0.00 65 1016.5
20260505060045 62 299 0.0 0.0 0.00 0.00 0.00 65 1016.5
20260505054529 63 193 0.0 0.0 0.00 0.00 0.00 64 1016.4
20260505053013 63 273 0.0 7.0 0.00 0.00 0.00 64 1016.6
20260505051559 63 199 0.0 0.0 0.00 0.00 0.00 63 1016.7
20260505051501 63 212 0.0 0.0 0.00 0.00 0.00 63 1016.7
20260505041556 65 296 1.0 10.0 0.00 0.00 0.00 61 1016.4
20260505041503 65 296 1.0 10.0 0.00 0.00 0.00 61 1016.5
20260505040041 65 238 0.0 5.0 0.00 0.00 0.00 60 1016.6
20260505034521 66 236 0.0 13.0 0.00 0.00 0.00 60 1016.5
20260505033030 66 191 0.0 0.0 0.00 0.00 0.00 60 1016.4
20260505031613 67 178 0.0 0.0 0.00 0.00 0.00 59 1016.4
20260505031501 67 207 0.0 0.0 0.00 0.00 0.00 59 1016.3
20260505030050 67 201 0.0 0.0 0.00 0.00 0.00 58 1016.5
20260505024552 68 192 0.0 0.0 0.00 0.00 0.00 56 1016.4
20260505023034 68 207 0.0 0.0 0.00 0.00 0.00 53 1016.3
20260505021528 69 196 0.0 0.0 0.00 0.00 0.00 49 1016.2
20260505020057 69 211 0.0 0.0 0.00 0.00 0.00 45 1016.1
20260505014546 70 281 0.0 0.0 0.00 0.00 0.00 44 1015.8
20260505013027 70 224 0.0 0.0 0.00 0.00 0.00 43 1015.7
20260505011518 70 206 0.0 0.0 0.00 0.00 0.00 43 1015.4
20260505010058 70 161 0.0 0.0 0.00 0.00 0.00 43 1015.2
20260505010003 70 161 0.0 0.0 0.00 0.00 0.00 43 1015.4
20260505004549 71 171 0.0 0.0 0.00 0.00 0.00 41 1015.2
20260505003026 72 170 0.0 0.0 0.00 0.00 0.00 40 1015.1
20260505001515 72 169 0.0 0.0 0.00 0.00 0.00 38 1015.0
20260505000002 72 181 0.0 0.0 0.00 0.00 0.00 37 1014.9
20260504234540 74 181 0.0 0.0 0.00 0.00 0.00 36 1014.8
20260504233034 76 181 0.0 0.0 0.00 0.00 0.00 33 1014.6
20260504231516 76 179 0.0 0.0 0.00 0.00 0.00 32 1014.5
20260504230006 77 215 0.0 0.0 0.00 0.00 0.00 32 1014.6
20260504224548 77 299 0.0 0.0 0.00 0.00 0.00 32 1014.6
20260504223036 79 279 0.0 0.0 0.00 0.00 0.00 30 1014.6
20260504221520 80 199 0.0 0.0 0.00 0.00 0.00 31 1014.6
20260504220136 80 197 0.0 0.0 0.00 0.00 0.00 30 1014.6
20260504220004 80 196 0.0 0.0 0.00 0.00 0.00 30 1014.6
20260504214551 80 173 0.0 0.0 0.00 0.00 0.00 30 1014.6
20260504213032 80 307 0.0 0.0 0.00 0.00 0.00 31 1014.7
20260504211519 80 273 0.0 0.0 0.00 0.00 0.00 32 1014.9
20260504210101 80 283 0.0 0.0 0.00 0.00 0.00 30 1014.7
20260504210007 80 157 0.0 0.0 0.00 0.00 0.00 30 1014.8
20260504204559 80 277 0.0 0.0 0.00 0.00 0.00 30 1014.8
20260504203029 79 143 0.0 0.0 0.00 0.00 0.00 31 1015.1
20260504201514 79 324 0.0 0.0 0.00 0.00 0.00 31 1015.3
20260504200110 79 207 0.0 0.0 0.00 0.00 0.00 32 1015.3
20260504194544 79 200 0.0 0.0 0.00 0.00 0.00 33 1015.5
20260504193028 78 301 0.0 0.0 0.00 0.00 0.00 33 1015.7
20260504191518 79 193 0.0 0.0 0.00 0.00 0.00 32 1015.5
20260504190056 79 234 0.0 0.0 0.00 0.00 0.00 32 1015.8
20260504184545 78 155 0.0 0.0 0.00 0.00 0.00 34 1016.0
20260504183032 76 269 0.0 0.0 0.00 0.00 0.00 31 1016.3
20260504181517 77 273 0.0 0.0 0.00 0.00 0.00 34 1016.4
20260504180054 78 274 0.0 0.0 0.00 0.00 0.00 31 1016.5
20260504174540 77 307 0.0 0.0 0.00 0.00 0.00 34 1016.5
20260504173028 77 209 0.0 0.0 0.00 0.00 0.00 33 1016.7
20260504171506 76 263 0.0 0.0 0.00 0.00 0.00 34 1017.1